FW4125 Weather Reports


Display with metric or nautical units.
time (UTC)temp
F
wind
direction
speed
MPH
gust
MPH
rain 1hr
in
rain 24hr
in
rain mn
in
humidity
%
barometer
mb
20260905224503 99 71 0.0 2.0 0.00 0.01 0.01 27 839.6
20260905223008 100 74 1.0 3.0 0.00 0.01 0.01 27 839.6
20260905221503 100 62 0.0 3.0 0.00 0.01 0.01 27 839.6
20260905220004 100 90 0.0 0.0 0.00 0.01 0.01 28 839.6
20260905214509 100 95 0.0 2.0 0.00 0.01 0.01 28 839.6
20260905213013 99 114 0.0 3.0 0.00 0.01 0.01 28 839.6
20260905211533 99 205 0.0 1.0 0.00 0.01 0.01 27 839.6
20260905210013 100 203 1.0 3.0 0.00 0.01 0.01 27 839.6
20260905204525 101 236 1.0 4.0 0.00 0.01 0.01 26 839.6
20260905203036 100 287 0.0 3.0 0.00 0.01 0.01 25 839.6
20260905201543 100 225 1.0 3.0 0.00 0.01 0.01 27 883.9
20260905200024 100 223 2.0 4.0 0.00 0.01 0.01 26 883.9
20260905194522 100 227 1.0 5.0 0.00 0.01 0.01 26 883.9
20260905193032 100 312 1.0 4.0 0.00 0.01 0.01 27 883.9
20260905191528 99 290 1.0 5.0 0.00 0.01 0.01 29 883.9
20260905190024 99 90 0.0 2.0 0.00 0.01 0.01 30 883.9
20260905184529 98 111 1.0 5.0 0.00 0.01 0.01 32 883.9
20260905183032 97 79 0.0 3.0 0.00 0.01 0.01 33 883.9
20260905181526 96 138 0.0 3.0 0.00 0.01 0.01 34 883.9
20260905180025 95 214 1.0 4.0 0.00 0.01 0.01 36 883.9
20260905174527 93 320 0.0 4.0 0.00 0.01 0.01 38 883.9
20260905173022 91 136 0.0 0.0 0.00 0.01 0.01 40 883.9
20260905171521 89 190 0.0 0.0 0.00 0.01 0.01 43 883.9
20260905170019 87 154 0.0 2.0 0.00 0.01 0.01 47 883.9
20260905164515 86 243 1.0 4.0 0.00 0.01 0.01 47 883.9
20260905163014 85 243 0.0 3.0 0.00 0.01 0.01 51 883.9
20260905161514 84 295 0.0 6.0 0.00 0.01 0.01 54 883.9
20260905160011 83 285 0.0 2.0 0.00 0.01 0.01 55 883.9
20260905154513 82 289 0.0 4.0 0.00 0.01 0.01 58 883.9
20260905153020 80 287 0.0 4.0 0.00 0.01 0.01 59 883.9
20260905151525 79 245 1.0 4.0 0.00 0.01 0.01 62 883.9
20260905150023 78 239 0.0 3.0 0.00 0.01 0.01 65 883.9
20260905144530 78 277 1.0 2.0 0.00 0.01 0.01 66 883.9
20260905143025 77 234 0.0 4.0 0.00 0.01 0.01 66 883.9
20260905141522 77 251 0.0 3.0 0.00 0.01 0.01 67 883.9
20260905140019 77 251 0.0 0.0 0.00 0.01 0.01 66 883.9
20260905134527 77 251 0.0 0.0 0.00 0.01 0.01 66 883.9
20260905133027 76 251 0.0 1.0 0.00 0.01 0.01 66 883.9
20260905131531 76 251 0.0 0.0 0.00 0.01 0.01 65 883.9
20260905130041 76 251 0.0 0.0 0.00 0.01 0.01 65 883.9
20260905124540 76 251 0.0 0.0 0.00 0.01 0.01 64 883.9
20260905123041 76 251 0.0 0.0 0.00 0.01 0.01 64 883.9
20260905121548 76 251 0.0 0.0 0.00 0.01 0.01 63 883.9
20260905120046 77 251 0.0 0.0 0.00 0.01 0.01 62 883.9
20260905114549 77 251 0.0 0.0 0.00 0.01 0.01 61 883.9
20260905113048 78 251 0.0 1.0 0.00 0.01 0.01 61 883.9
20260905111552 78 251 0.0 0.0 0.00 0.01 0.01 61 883.9
20260905110051 79 251 0.0 0.0 0.00 0.01 0.01 61 883.9
20260905104606 79 251 0.0 0.0 0.00 0.01 0.01 60 883.9
20260905103049 79 251 0.0 0.0 0.00 0.01 0.01 60 883.9
20260905101547 79 251 0.0 0.0 0.00 0.01 0.01 59 883.9
20260905100052 79 251 0.0 0.0 0.00 0.01 0.01 59 883.9
20260905094552 80 251 0.0 0.0 0.00 0.01 0.01 59 883.9
20260905093048 80 251 0.0 0.0 0.00 0.01 0.01 59 883.9
20260905091551 80 251 0.0 0.0 0.00 0.01 0.01 58 1086.1
20260905090118 81 251 0.0 0.0 0.00 0.01 0.01 58 1086.1
20260905084558 81 251 0.0 0.0 0.00 0.01 0.01 58 1086.1
20260905083055 81 251 0.0 0.0 0.00 0.01 0.01 58 1086.1
20260905081601 81 243 0.0 2.0 0.00 0.01 0.01 58 1086.1
20260905080002 81 243 0.0 1.0 0.01 0.01 0.01 57 1086.1
20260905074503 81 275 0.0 3.0 0.01 0.01 0.01 57 1086.1
20260905073008 81 225 0.0 2.0 0.01 0.01 0.01 56 1086.1
20260905071504 82 225 0.0 2.0 0.01 0.01 0.01 56 1086.1
20260905070008 82 280 0.0 3.0 0.00 0.00 0.00 55 1086.1
20260905064507 82 218 0.0 0.0 0.00 0.00 0.00 55 1086.1
20260905063008 82 218 0.0 0.0 0.00 0.00 0.00 54 1086.1
20260905061528 82 218 0.0 0.0 0.00 0.00 0.00 54 1086.1
20260905060017 82 218 0.0 2.0 0.00 0.00 0.00 53 1086.1
20260905054525 83 218 0.0 2.0 0.00 0.00 0.00 53 1086.1
20260905053014 83 222 0.0 2.0 0.00 0.00 0.00 52 1086.1
20260905051518 84 222 0.0 3.0 0.00 0.00 0.00 50 1086.1
20260905050016 85 229 0.0 3.0 0.00 0.00 0.00 48 1086.1
20260905044527 87 228 0.0 3.0 0.00 0.00 0.00 46 1086.1
20260905043024 88 169 0.0 3.0 0.00 0.00 0.00 44 1086.1
20260905041545 88 183 1.0 3.0 0.00 0.00 0.00 44 1086.1
20260905040031 89 166 0.0 3.0 0.00 0.00 0.00 43 1086.1
20260905034531 89 159 0.0 2.0 0.00 0.00 0.00 42 1086.1
20260905033031 89 174 0.0 3.0 0.00 0.00 0.00 41 1086.1
20260905031535 89 175 0.0 2.0 0.00 0.00 0.00 39 1086.1
20260905030037 90 177 0.0 2.0 0.00 0.00 0.00 38 1086.1
20260905024539 90 177 0.0 1.0 0.00 0.00 0.00 38 1086.1
20260905023038 90 177 0.0 2.0 0.00 0.00 0.00 37 1086.1
20260905021542 91 177 0.0 2.0 0.00 0.00 0.00 37 1086.1
20260905020039 91 177 0.0 3.0 0.00 0.00 0.00 37 1086.1
20260905014541 92 178 0.0 2.0 0.00 0.00 0.00 37 1086.1
20260905013105 92 179 0.0 2.0 0.00 0.00 0.00 36 1086.1
20260905011545 93 177 0.0 5.0 0.00 0.00 0.00 35 1086.1
20260905010048 94 181 0.0 4.0 0.00 0.00 0.00 35 1086.1
20260905004633 95 168 0.0 4.0 0.00 0.00 0.00 33 1086.1
20260905003051 96 144 0.0 3.0 0.00 0.00 0.00 32 1086.1
20260905001559 97 175 0.0 4.0 0.00 0.00 0.00 31 1086.1
20260905000054 97 172 0.0 3.0 0.00 0.00 0.00 31 1086.1
20260904234601 97 173 0.0 3.0 0.00 0.00 0.00 30 1086.1
20260904233101 97 173 0.0 4.0 0.00 0.00 0.00 30 1086.1
20260904231601 97 169 1.0 4.0 0.00 0.00 0.00 29 1086.1
20260904230108 97 177 0.0 2.0 0.00 0.00 0.00 30 1086.1
20260904224602 97 177 0.0 1.0 0.00 0.00 0.00 30 1086.1